sat.trackr.live / text

‹ back to catalog

GALAXY 32 (G-32)

NORAD 54244 · 2022-153B

PAYLOAD ACTIVE UNKNOWN

§ Identity

Operator
Country
ITSO
Launch date
2022-11-12
Launch site
AFETR
Launch vehicle
Mass (kg)
RCS (m²)

Purposes: comms

External: N2YO · Heavens-Above · Gunter

§ Orbital elements

Epoch: 2026-09-20T01:05:34.592064Z

Period
1,436.10 min
Inclination
0.0194°
Eccentricity
0.0000157
Mean motion
1.00271507 rev/d
Perigee alt
35,786.0 km
Apogee alt
35,787.3 km
Semi-major
42,164.8 km
B*
0.0000e+0
RAAN
117.6552°
Arg perigee
306.8176°
Mean anomaly
219.8808°
Rev number
1,409

§ Raw data

GALAXY 32 (G-32)1 54244U 22153B   26263.04553926 -.00000178  00000+0  00000+0 0  99902 54244   0.0194 117.6552 0000157 306.8176 219.8808  1.00271507 14099

JSON: /api/v1/satellites/54244 · /tle

For live sub-satellite position, see the globe view (requires WebGL).

§ Visibility from observer

Set your observer location to see the next 7 days of passes ≥ 10°. The values pass through the URL so the page stays shareable.

No JS? Fill the form by hand. The geolocation button needs JavaScript.